Keokuk, IA

9:13 AM CST on February 25, 2017 (GMT -0600)
Keokuk Municipal

Weather History for KEOK - May, 2013

Change the Weather History Date:

Friday, May 3, 2013

  Actual Average Record
Temperature  
Mean Temperature 42 °F -  
Max Temperature 46 °F 69 °F 87 °F (1959)
Min Temperature 37 °F 48 °F 33 °F (1976)
Degree Days  
Heating Degree Days 24    
Moisture  
Dew Point 33 °F    
Average Humidity 76    
Maximum Humidity 81    
Minimum Humidity 71    
Precipitation  
Precipitation 2.01 in - - ()
Sea Level Pressure  
Sea Level Pressure 29.98 in    
Wind  
Wind Speed 12 mph (NNW)    
Max Wind Speed 17 mph    
Max Gust Speed 26 mph    
Visibility 7 miles    
Events Rain    
Averages and records for this station are not official NWS values.
T = Trace of Precipitation, MM = Missing Value Source: NWS Daily Summary

Daily Weather History Graph

Daily Weather History Graph

Search for Another Location

Airport or City:

Trip Planner

Search our weather history database for the weather conditions in past years. The results will help you decide how hot, cold, wet, or windy it might be!

Date:

Astronomy

May. 03, 2013 Rise Set
Actual Time 6:02 AM CDT 8:03 PM CDT
Civil Twilight 5:32 AM CDT 8:33 PM CDT
Nautical Twilight 4:55 AM CDT 9:10 PM CDT
Astronomical Twilight 4:16 AM CDT 9:49 PM CDT
Moon 2:28 AM CDT (5/3) 1:57 PM CDT (5/3)
Length of Visible Light 15h 01m
Length of Day
14h 01m
Last Quarter, 37% of the Moon is Illuminated
May 3
Last Quarter
May 9
New
May 17
First Quarter
May 24
Full
May 31
Last Quarter

Hourly Weather History & Observations

Time (CDT) Temp. Windchill Dew Point Humidity Pressure Visibility Wind Dir Wind Speed Gust Speed Precip Events Conditions
12:15 AM 39.2 °F 32.5 °F 32.0 °F 75% 30.18 in 4.0 mi NNW 10.4 mph 18.4 mph 0.03 in Rain Light Rain
12:35 AM 39.2 °F 32.5 °F 32.0 °F 75% 30.16 in 5.0 mi North 10.4 mph 19.6 mph 0.05 in Rain Rain
12:55 AM 39.2 °F 30.5 °F 32.0 °F 75% 30.15 in 7.0 mi North 16.1 mph 21.9 mph 0.07 in Rain Light Rain
1:15 AM 37.4 °F 30.3 °F 32.0 °F 81% 30.15 in 5.0 mi North 10.4 mph 17.3 mph 0.02 in Rain Light Rain
1:35 AM 39.2 °F 31.2 °F 32.0 °F 75% 30.14 in 10.0 mi North 13.8 mph 21.9 mph 0.02 in   Light Drizzle
1:55 AM 37.4 °F 28.2 °F 30.2 °F 75% 30.13 in 7.0 mi North 16.1 mph 21.9 mph 0.03 in Rain Rain
2:15 AM 37.4 °F 29.3 °F 30.2 °F 75% 30.12 in 7.0 mi North 12.7 mph 17.3 mph 0.02 in Rain Light Rain
2:35 AM 37.4 °F 28.5 °F 30.2 °F 75% 30.10 in 7.0 mi North 15.0 mph 21.9 mph 0.03 in Rain Light Rain
3:15 AM 37.4 °F 29.3 °F 32.0 °F 81% 30.07 in 10.0 mi North 12.7 mph 18.4 mph N/A   Overcast
3:35 AM 37.4 °F 30.3 °F 32.0 °F 81% 30.08 in 10.0 mi North 10.4 mph 18.4 mph N/A   Overcast
3:55 AM 39.2 °F 33.0 °F 32.0 °F 75% 30.09 in 10.0 mi North 9.2 mph 19.6 mph N/A   Overcast
4:15 AM 37.4 °F 27.8 °F 32.0 °F 81% 30.09 in 10.0 mi North 17.3 mph 21.9 mph N/A   Overcast
4:35 AM 37.4 °F 29.3 °F 30.2 °F 75% 30.08 in 5.0 mi North 12.7 mph 19.6 mph N/A Rain Rain
4:55 AM 37.4 °F 29.3 °F 30.2 °F 75% 30.07 in 5.0 mi North 12.7 mph 19.6 mph 0.02 in Rain Light Rain
5:15 AM 37.4 °F 29.8 °F 30.2 °F 75% 30.07 in 5.0 mi North 11.5 mph 16.1 mph 0.01 in Rain Light Rain
5:35 AM 37.4 °F 28.9 °F 30.2 °F 75% 30.07 in 5.0 mi NNW 13.8 mph 19.6 mph 0.05 in Rain Rain
5:55 AM 37.4 °F 30.3 °F 30.2 °F 75% 30.08 in 7.0 mi NNW 10.4 mph - 0.07 in Rain Light Rain
6:15 AM 37.4 °F 30.3 °F 30.2 °F 75% 30.07 in 4.0 mi NNW 10.4 mph 17.3 mph 0.04 in Rain Rain
6:35 AM 37.4 °F 29.8 °F 30.2 °F 75% 30.07 in 5.0 mi North 11.5 mph - 0.07 in Rain Rain
6:55 AM 37.4 °F 29.8 °F 30.2 °F 75% 30.07 in 5.0 mi NNW 11.5 mph 17.3 mph 0.10 in Rain Light Rain
7:15 AM 37.4 °F 30.3 °F 30.2 °F 75% 30.07 in 3.0 mi NNW 10.4 mph - 0.03 in Rain Light Rain
7:35 AM 37.4 °F 31.4 °F 30.2 °F 75% 30.07 in 4.0 mi NNW 8.1 mph 16.1 mph 0.07 in Rain Rain
7:55 AM 37.4 °F 29.8 °F 30.2 °F 75% 30.06 in 4.0 mi NNW 11.5 mph 17.3 mph 0.10 in Rain Light Rain
8:15 AM 37.4 °F 28.9 °F 30.2 °F 75% 30.04 in 4.0 mi North 13.8 mph - 0.03 in Rain Rain
8:35 AM 37.4 °F 30.3 °F 30.2 °F 75% 30.03 in 5.0 mi North 10.4 mph 18.4 mph 0.07 in Rain Rain
8:55 AM 37.4 °F 29.8 °F 30.2 °F 75% 30.04 in 3.0 mi NNW 11.5 mph 19.6 mph 0.13 in Rain Rain
9:15 AM 37.4 °F 29.8 °F 30.2 °F 75% 30.04 in 5.0 mi North 11.5 mph 17.3 mph 0.04 in Rain Rain
9:35 AM 37.4 °F 28.2 °F 30.2 °F 75% 30.02 in 3.0 mi North 16.1 mph 26.5 mph 0.08 in   Overcast
9:55 AM 37.4 °F 28.9 °F 30.2 °F 75% 30.02 in 4.0 mi North 13.8 mph 23.0 mph 0.12 in Rain Light Rain
10:15 AM 37.4 °F 30.3 °F 30.2 °F 75% 30.02 in 3.0 mi North 10.4 mph - 0.03 in Rain Light Rain
10:35 AM 37.4 °F 30.3 °F 30.2 °F 75% 30.02 in 3.0 mi North 10.4 mph - 0.08 in Rain Rain
10:55 AM 39.2 °F 33.6 °F 32.0 °F 75% 30.03 in 3.0 mi North 8.1 mph 16.1 mph 0.15 in Rain Rain
11:15 AM 39.2 °F 32.0 °F 32.0 °F 75% 30.01 in 3.0 mi North 11.5 mph 18.4 mph 0.05 in Rain Rain
11:35 AM 39.2 °F 31.2 °F 32.0 °F 75% 30.00 in 5.0 mi North 13.8 mph 19.6 mph 0.12 in Rain Rain
11:55 AM 39.2 °F 31.2 °F 32.0 °F 75% 29.99 in 4.0 mi North 13.8 mph 21.9 mph 0.17 in Rain Rain
12:15 PM 39.2 °F 32.0 °F 32.0 °F 75% 29.99 in 7.0 mi North 11.5 mph 17.3 mph 0.04 in Rain Light Rain
12:35 PM 39.2 °F 32.5 °F 32.0 °F 75% 29.99 in 5.0 mi North 10.4 mph - 0.06 in Rain Light Rain
12:55 PM 39.2 °F 32.0 °F 32.0 °F 75% 29.97 in 7.0 mi North 11.5 mph 17.3 mph 0.09 in Rain Rain
1:15 PM 39.2 °F 32.5 °F 33.8 °F 81% 29.97 in 5.0 mi North 10.4 mph 16.1 mph 0.02 in Rain Rain
1:35 PM 39.2 °F 32.5 °F 33.8 °F 81% 29.96 in 7.0 mi North 10.4 mph - 0.05 in Rain Light Rain
1:55 PM 41.0 °F 34.3 °F 33.8 °F 76% 29.96 in 7.0 mi North 11.5 mph 16.1 mph 0.06 in Rain Light Rain
2:15 PM 41.0 °F 34.3 °F 33.8 °F 76% 29.95 in 7.0 mi NNW 11.5 mph 16.1 mph 0.02 in Rain Rain
2:35 PM 41.0 °F 33.5 °F 33.8 °F 76% 29.94 in 10.0 mi North 13.8 mph 20.7 mph 0.05 in Rain Light Rain
2:55 PM 41.0 °F 35.2 °F 33.8 °F 76% 29.92 in 10.0 mi North 9.2 mph 17.3 mph 0.06 in Rain Light Rain
3:15 PM 41.0 °F 34.7 °F 33.8 °F 76% 29.94 in 10.0 mi North 10.4 mph - 0.02 in Rain Rain
3:35 PM 41.0 °F 34.7 °F 33.8 °F 76% 29.92 in 10.0 mi North 10.4 mph - 0.06 in Rain Rain
3:55 PM 41.0 °F 34.3 °F 33.8 °F 76% 29.92 in 7.0 mi North 11.5 mph - 0.09 in Rain Rain
4:15 PM 41.0 °F 36.4 °F 33.8 °F 76% 29.93 in 10.0 mi NNW 6.9 mph - 0.04 in Rain Rain
4:35 PM 41.0 °F 34.7 °F 33.8 °F 76% 29.91 in 10.0 mi NNW 10.4 mph - 0.06 in Rain Rain
4:55 PM 42.8 °F 39.3 °F 35.6 °F 76% 29.90 in 10.0 mi NNW 5.8 mph - 0.08 in Rain Rain
5:15 PM 41.0 °F 35.2 °F 35.6 °F 81% 29.90 in 7.0 mi North 9.2 mph - 0.04 in Rain Rain
5:35 PM 42.8 °F 37.0 °F 35.6 °F 76% 29.90 in 10.0 mi NNW 10.4 mph - 0.05 in Rain Light Rain
5:55 PM 42.8 °F 38.6 °F 35.6 °F 76% 29.91 in 7.0 mi NNW 6.9 mph 16.1 mph 0.07 in Rain Rain
6:15 PM 42.8 °F 38.0 °F 35.6 °F 76% 29.91 in 10.0 mi NNW 8.1 mph - 0.02 in Rain Light Rain
6:35 PM 42.8 °F 37.5 °F 35.6 °F 76% 29.90 in 10.0 mi NNW 9.2 mph - 0.06 in Rain Rain
6:55 PM 42.8 °F 37.0 °F 35.6 °F 76% 29.89 in 10.0 mi NNW 10.4 mph - 0.08 in Rain Light Rain
7:15 PM 42.8 °F 38.0 °F 35.6 °F 76% 29.89 in 10.0 mi NNW 8.1 mph - 0.02 in Rain Rain
7:35 PM 42.8 °F 37.0 °F 35.6 °F 76% 29.88 in 10.0 mi NNW 10.4 mph 16.1 mph 0.04 in Rain Light Rain
7:55 PM 42.8 °F 36.6 °F 35.6 °F 76% 29.87 in 10.0 mi NNW 11.5 mph 17.3 mph 0.07 in Rain Rain
8:15 PM 42.8 °F 35.8 °F 35.6 °F 76% 29.85 in 10.0 mi North 13.8 mph 19.6 mph 0.03 in Rain Light Rain
8:35 PM 42.8 °F 35.4 °F 35.6 °F 76% 29.85 in 10.0 mi North 15.0 mph 20.7 mph 0.05 in Rain Rain
8:55 PM 42.8 °F 35.8 °F 35.6 °F 76% 29.85 in 10.0 mi North 13.8 mph 20.7 mph 0.09 in Rain Rain
9:15 PM 42.8 °F 36.2 °F 35.6 °F 76% 29.84 in 10.0 mi North 12.7 mph - 0.04 in Rain Rain
9:35 PM 44.6 °F 39.2 °F 37.4 °F 76% 29.88 in 7.0 mi SSW 10.4 mph - 0.06 in Rain Light Rain
9:55 PM 44.6 °F 39.7 °F 37.4 °F 76% 29.86 in 7.0 mi NW 9.2 mph - 0.09 in Rain Rain
10:15 PM 44.6 °F 40.2 °F 37.4 °F 76% 29.84 in 10.0 mi NNW 8.1 mph - 0.04 in Rain Rain
10:35 PM 44.6 °F 40.7 °F 37.4 °F 76% 29.84 in 10.0 mi NW 6.9 mph - 0.10 in Rain Rain
10:55 PM 44.6 °F 39.2 °F 37.4 °F 76% 29.82 in 10.0 mi NNW 10.4 mph - 0.18 in Rain Rain
11:15 PM 44.6 °F 39.2 °F 37.4 °F 76% 29.81 in 10.0 mi North 10.4 mph - 0.04 in Rain Rain
11:35 PM 46.4 °F 40.7 °F 37.4 °F 71% 29.81 in 10.0 mi North 12.7 mph 17.3 mph 0.06 in Rain Light Rain
11:55 PM 46.4 °F 41.1 °F 39.2 °F 76% 29.80 in 4.0 mi North 11.5 mph 17.3 mph 0.06 in Rain Light Rain